PHENX80 YSNW-YMEN

Flight info

Callsign PHENX80
Flight time N/A
Altitude 6000
Route CB Q215 TANTA Q29 LUVAS Q205 COLDS
Aircraft EC45/L-SDFGRY/C

Departure

Time 2026-04-19 06:33
Airport Naval Air Station Nowra - HMAS Albatross (YSNW)

Arrival

Time N/A
Airport Melbourne Essendon Airport (YMEN)
Time Latitude Longitude Altitude Speed Heading
2026-04-19 06:17 -34.94474 150.54577 366 ft 0 kts 334°
2026-04-19 06:29 -34.94474 150.54578 365 ft 0 kts 334°
2026-04-19 06:30 -34.94474 150.54577 365 ft 0 kts 334°
2026-04-19 06:31 -34.94474 150.54578 366 ft 1 kts 320°
2026-04-19 06:32 -34.94479 150.54576 377 ft 1 kts 331°
2026-04-19 06:32 -34.94444 150.54565 432 ft 16 kts 249°
2026-04-19 06:32 -34.94396 150.54308 698 ft 41 kts 246°
2026-04-19 06:32 -34.94402 150.53970 1106 ft 42 kts 245°
2026-04-19 06:33 -34.94518 150.53512 1356 ft 74 kts 237°
2026-04-19 06:33 -34.94741 150.52869 1627 ft 82 kts 237°
2026-04-19 06:33 -34.94956 150.52212 1872 ft 85 kts 240°
2026-04-19 06:33 -34.95172 150.51526 2128 ft 89 kts 241°
2026-04-19 06:34 -34.95389 150.50817 2388 ft 88 kts 242°
2026-04-19 06:34 -34.95598 150.50110 2640 ft 89 kts 242°
2026-04-19 06:34 -34.95805 150.49391 2892 ft 91 kts 244°
2026-04-19 06:34 -34.96008 150.48670 3147 ft 88 kts 243°
2026-04-19 06:35 -34.96203 150.47961 3405 ft 89 kts 243°
2026-04-19 06:35 -34.96402 150.47231 3656 ft 91 kts 244°
2026-04-19 06:35 -34.96596 150.46511 3909 ft 88 kts 244°
2026-04-19 06:35 -34.96784 150.45807 4152 ft 88 kts 247°
2026-04-19 06:36 -34.96975 150.45084 4404 ft 91 kts 249°
2026-04-19 06:36 -34.97165 150.44355 4662 ft 88 kts 249°
2026-04-19 06:36 -34.97345 150.43658 4918 ft 86 kts 250°
2026-04-19 06:36 -34.97523 150.42967 5165 ft 87 kts 249°
2026-04-19 06:37 -34.97704 150.42264 5408 ft 87 kts 248°
2026-04-19 06:37 -34.97884 150.41559 5658 ft 87 kts 245°
2026-04-19 06:37 -34.98066 150.40850 5870 ft 88 kts 244°
2026-04-19 06:37 -34.98254 150.40136 5957 ft 88 kts 243°
2026-04-19 06:38 -34.98443 150.39426 5998 ft 88 kts 244°
2026-04-19 06:38 -34.98630 150.38724 6014 ft 87 kts 244°
2026-04-19 06:38 -34.98814 150.38024 6020 ft 87 kts 244°
2026-04-19 06:38 -34.98998 150.37320 6026 ft 87 kts 243°
2026-04-19 06:39 -34.99180 150.36622 6030 ft 86 kts 243°
2026-04-19 06:39 -34.99360 150.35929 6032 ft 86 kts 244°
2026-04-19 06:39 -34.99540 150.35237 6031 ft 85 kts 245°
2026-04-19 06:39 -34.99717 150.34544 6032 ft 87 kts 244°
2026-04-19 06:40 -34.99897 150.33841 6033 ft 87 kts 244°
2026-04-19 06:40 -35.00079 150.33137 6033 ft 87 kts 244°
2026-04-19 06:40 -35.00259 150.32437 6031 ft 85 kts 245°
2026-04-19 06:40 -35.00430 150.31755 6028 ft 85 kts 245°
2026-04-19 06:41 -35.00606 150.31058 6034 ft 87 kts 244°
2026-04-19 06:41 -35.00858 150.30415 6033 ft 85 kts 234°
2026-04-19 06:41 -35.01139 150.29776 6035 ft 85 kts 235°
2026-04-19 06:41 -35.01402 150.29130 6033 ft 85 kts 237°
2026-04-19 06:42 -35.01646 150.28478 6029 ft 83 kts 238°
2026-04-19 06:42 -35.01870 150.27833 6029 ft 83 kts 239°
2026-04-19 06:42 -35.02088 150.27176 6028 ft 84 kts 240°
2026-04-19 06:42 -35.02298 150.26510 6028 ft 84 kts 241°
2026-04-19 06:43 -35.02501 150.25836 6029 ft 85 kts 242°
2026-04-19 06:43 -35.02698 150.25159 6029 ft 85 kts 243°
2026-04-19 06:43 -35.02914 150.24372 6007 ft 114 kts 245°
2026-04-19 06:43 -35.03171 150.23371 6021 ft 128 kts 245°
2026-04-19 06:44 -35.03434 150.22351 6029 ft 124 kts 245°
2026-04-19 06:44 -35.03680 150.21412 6037 ft 111 kts 246°
2026-04-19 06:44 -35.03913 150.20511 6032 ft 115 kts 246°
2026-04-19 06:44 -35.04158 150.19553 6031 ft 119 kts 246°
2026-04-19 06:45 -35.04400 150.18587 6034 ft 118 kts 246°
2026-04-19 06:45 -35.04640 150.17621 6034 ft 119 kts 246°
2026-04-19 06:45 -35.04883 150.16641 6019 ft 122 kts 249°
2026-04-19 06:45 -35.05132 150.15633 6020 ft 125 kts 249°
2026-04-19 06:46 -35.05383 150.14611 6020 ft 127 kts 248°
2026-04-19 06:46 -35.05638 150.13571 6023 ft 128 kts 248°
2026-04-19 06:46 -35.05895 150.12521 6022 ft 129 kts 248°
2026-04-19 06:46 -35.06149 150.11482 6020 ft 127 kts 248°
2026-04-19 06:47 -35.06395 150.10469 6023 ft 123 kts 249°
2026-04-19 06:47 -35.06642 150.09459 6022 ft 126 kts 248°
2026-04-19 06:47 -35.06896 150.08414 6021 ft 129 kts 248°
2026-04-19 06:47 -35.07145 150.07390 6023 ft 127 kts 249°
2026-04-19 06:48 -35.07396 150.06355 6024 ft 127 kts 248°
2026-04-19 06:48 -35.07647 150.05319 6020 ft 126 kts 249°
2026-04-19 06:48 -35.07896 150.04293 6018 ft 126 kts 249°
2026-04-19 06:48 -35.08146 150.03263 6021 ft 127 kts 249°
2026-04-19 06:49 -35.08396 150.02235 6023 ft 128 kts 249°
2026-04-19 06:49 -35.08649 150.01191 6022 ft 128 kts 249°
2026-04-19 06:49 -35.08900 150.00152 6023 ft 127 kts 249°
2026-04-19 06:49 -35.09152 149.99114 6021 ft 128 kts 249°
2026-04-19 06:50 -35.09405 149.98072 6022 ft 129 kts 249°
2026-04-19 06:50 -35.09660 149.97017 6023 ft 128 kts 249°
2026-04-19 06:50 -35.09913 149.95972 6022 ft 127 kts 249°
2026-04-19 06:50 -35.10163 149.94935 6023 ft 127 kts 249°
2026-04-19 06:51 -35.10414 149.93899 6012 ft 128 kts 249°
2026-04-19 06:51 -35.10665 149.92859 6013 ft 128 kts 249°
2026-04-19 06:51 -35.10916 149.91819 6013 ft 127 kts 249°
2026-04-19 06:51 -35.11166 149.90784 6013 ft 127 kts 249°
2026-04-19 06:52 -35.11417 149.89744 6014 ft 127 kts 249°
2026-04-19 06:52 -35.11665 149.88718 6013 ft 127 kts 249°
2026-04-19 06:52 -35.11915 149.87678 6008 ft 128 kts 250°
2026-04-19 06:52 -35.12168 149.86625 6012 ft 130 kts 249°
2026-04-19 06:53 -35.12424 149.85562 6020 ft 130 kts 251°
2026-04-19 06:53 -35.12678 149.84502 6021 ft 130 kts 251°
2026-04-19 06:53 -35.12933 149.83442 6021 ft 130 kts 251°
2026-04-19 06:53 -35.13189 149.82379 6013 ft 130 kts 251°
2026-04-19 06:54 -35.13444 149.81318 6014 ft 130 kts 251°
2026-04-19 06:54 -35.13697 149.80264 6013 ft 129 kts 252°
2026-04-19 06:54 -35.13951 149.79208 6014 ft 130 kts 251°
2026-04-19 06:54 -35.14205 149.78148 6013 ft 130 kts 251°
2026-04-19 06:55 -35.14459 149.77090 6015 ft 130 kts 251°
2026-04-19 06:55 -35.14711 149.76041 6013 ft 131 kts 251°
2026-04-19 06:55 -35.14967 149.74972 6015 ft 130 kts 251°
2026-04-19 06:55 -35.15222 149.73908 6014 ft 130 kts 251°
2026-04-19 06:56 -35.15476 149.72847 6013 ft 130 kts 251°
2026-04-19 06:56 -35.15732 149.71781 6014 ft 131 kts 251°
2026-04-19 06:56 -35.15987 149.70715 6005 ft 131 kts 251°
2026-04-19 06:56 -35.16242 149.69651 6004 ft 130 kts 251°
2026-04-19 06:57 -35.16495 149.68592 6009 ft 130 kts 251°
2026-04-19 06:57 -35.16748 149.67534 6009 ft 129 kts 251°
2026-04-19 06:57 -35.17000 149.66477 6009 ft 130 kts 251°
2026-04-19 06:57 -35.17253 149.65418 6007 ft 130 kts 251°
2026-04-19 06:58 -35.17504 149.64368 6009 ft 130 kts 252°
2026-04-19 06:58 -35.17757 149.63308 6008 ft 130 kts 252°
2026-04-19 06:58 -35.18010 149.62247 6009 ft 130 kts 252°
2026-04-19 06:58 -35.18264 149.61183 6009 ft 131 kts 251°
2026-04-19 06:59 -35.18520 149.60112 5998 ft 131 kts 251°
2026-04-19 06:59 -35.18777 149.59029 6000 ft 133 kts 250°
2026-04-19 06:59 -35.19036 149.57939 6004 ft 133 kts 250°
2026-04-19 06:59 -35.19296 149.56849 6003 ft 134 kts 250°
2026-04-19 07:00 -35.19556 149.55753 6006 ft 134 kts 250°
2026-04-19 07:00 -35.19816 149.54657 6006 ft 134 kts 250°
2026-04-19 07:00 -35.19989 149.53929 6007 ft 134 kts 250°
2026-04-19 07:00 -35.20250 149.52831 6008 ft 135 kts 250°
2026-04-19 07:01 -35.20600 149.51361 6013 ft 135 kts 250°
2026-04-19 07:01 -35.20773 149.50633 6013 ft 135 kts 250°
2026-04-19 07:01 -35.21033 149.49536 6012 ft 134 kts 250°
2026-04-19 07:01 -35.21294 149.48436 6008 ft 134 kts 250°
2026-04-19 07:02 -35.21554 149.47339 6007 ft 135 kts 250°
2026-04-19 07:02 -35.21815 149.46241 6009 ft 134 kts 250°
2026-04-19 07:02 -35.22075 149.45142 6008 ft 135 kts 250°
2026-04-19 07:02 -35.22335 149.44044 6009 ft 134 kts 250°
2026-04-19 07:03 -35.22595 149.42947 6010 ft 134 kts 251°
2026-04-19 07:03 -35.22854 149.41850 6010 ft 135 kts 251°
2026-04-19 07:03 -35.23113 149.40759 6011 ft 135 kts 251°
2026-04-19 07:03 -35.23374 149.39655 6009 ft 136 kts 251°
2026-04-19 07:04 -35.23636 149.38545 6011 ft 135 kts 251°
2026-04-19 07:04 -35.23898 149.37438 6011 ft 135 kts 251°
2026-04-19 07:04 -35.24157 149.36341 6012 ft 134 kts 251°
2026-04-19 07:04 -35.24415 149.35247 6014 ft 133 kts 251°
2026-04-19 07:05 -35.24672 149.34157 6012 ft 134 kts 251°
2026-04-19 07:05 -35.24930 149.33060 6012 ft 134 kts 251°
2026-04-19 07:05 -35.25189 149.31963 6012 ft 134 kts 251°
2026-04-19 07:05 -35.25447 149.30864 6014 ft 134 kts 251°
2026-04-19 07:06 -35.25707 149.29760 6014 ft 135 kts 251°
2026-04-19 07:06 -35.25967 149.28656 6015 ft 136 kts 251°
2026-04-19 07:06 -35.26228 149.27547 6016 ft 135 kts 251°
2026-04-19 07:06 -35.26488 149.26442 6016 ft 135 kts 251°
2026-04-19 07:07 -35.26746 149.25342 6015 ft 135 kts 251°
2026-04-19 07:07 -35.27005 149.24237 6014 ft 135 kts 251°
2026-04-19 07:07 -35.27261 149.23149 6014 ft 135 kts 252°
2026-04-19 07:07 -35.27519 149.22048 6016 ft 135 kts 251°
2026-04-19 07:08 -35.27777 149.20947 6018 ft 134 kts 251°
2026-04-19 07:08 -35.28094 149.19883 6019 ft 132 kts 237°
2026-04-19 07:08 -35.28683 149.19025 6018 ft 132 kts 224°
2026-04-19 07:08 -35.29347 149.18244 6016 ft 133 kts 221°
2026-04-19 07:09 -35.30027 149.17477 6017 ft 133 kts 221°
2026-04-19 07:09 -35.30712 149.16714 6016 ft 133 kts 221°
2026-04-19 07:09 -35.31395 149.15955 6016 ft 133 kts 220°
2026-04-19 07:09 -35.32080 149.15198 6016 ft 133 kts 220°
2026-04-19 07:10 -35.32763 149.14444 6015 ft 132 kts 220°
2026-04-19 07:10 -35.33444 149.13692 6015 ft 132 kts 220°
2026-04-19 07:10 -35.34128 149.12939 6015 ft 132 kts 221°
2026-04-19 07:10 -35.34645 149.12370 6014 ft 132 kts 221°
2026-04-19 07:11 -35.35148 149.11817 6016 ft 131 kts 220°
2026-04-19 07:11 -35.35831 149.11067 6017 ft 131 kts 221°
2026-04-19 07:11 -35.36510 149.10320 6015 ft 131 kts 221°
2026-04-19 07:11 -35.37189 149.09572 6014 ft 131 kts 221°
2026-04-19 07:12 -35.37869 149.08824 6018 ft 131 kts 221°
2026-04-19 07:12 -35.38549 149.08075 6016 ft 131 kts 221°
2026-04-19 07:12 -35.39229 149.07327 6014 ft 132 kts 221°
2026-04-19 07:12 -35.39892 149.06605 6008 ft 122 kts 221°
2026-04-19 07:13 -35.40545 149.05884 5979 ft 129 kts 221°
2026-04-19 07:13 -35.41218 149.05141 5977 ft 130 kts 221°
2026-04-19 07:13 -35.41894 149.04395 5975 ft 131 kts 221°
2026-04-19 07:13 -35.42573 149.03645 5969 ft 132 kts 221°
2026-04-19 07:14 -35.43259 149.02887 5970 ft 133 kts 220°
2026-04-19 07:14 -35.43949 149.02125 5971 ft 133 kts 220°
2026-04-19 07:14 -35.44642 149.01360 5970 ft 135 kts 220°
2026-04-19 07:14 -35.45338 149.00592 5969 ft 135 kts 220°
2026-04-19 07:15 -35.46033 148.99826 5970 ft 134 kts 220°
2026-04-19 07:15 -35.46726 148.99061 5972 ft 134 kts 220°
2026-04-19 07:15 -35.48122 148.97520 5970 ft 136 kts 220°
2026-04-19 07:16 -35.48228 148.97402 5970 ft 136 kts 221°
2026-04-19 07:17 -35.49185 148.96498 5484 ft 27 kts 56°
2026-04-19 07:17 -35.49174 148.96481 5435 ft 11 kts 272°